Time,B instrument,Bx,By,Bz,sigma B,Ion instrument,Status,Tp_par,Tp_perp,carrot,r_sun,clat,clong,earth_he_angle,n_p,vp_x,vp_y,vp_z,vth_p_par,vth_p_perp
1980-08-06 00:17:55,-1,nan,nan,nan,nan,1,3,nan,nan,1697,0.93054122,2.0801144,51.884369,105.40781,nan,322.563,29.2213,15.9139,nan,nan
1980-08-06 01:01:07,-1,nan,nan,nan,nan,1,3,nan,nan,1697,0.93067002,2.0772381,51.48053,105.40239,nan,321.045,17.247,22.4772,nan,nan
1980-08-06 01:20:02,-1,nan,nan,nan,nan,1,4,nan,nan,1697,0.93072557,2.0759964,51.302399,105.40005,nan,nan,nan,nan,nan,nan
1980-08-06 02:50:01,-1,nan,nan,nan,nan,1,4,nan,nan,1697,0.93098843,2.0701141,50.467102,105.38896,nan,nan,nan,nan,nan,nan
1980-08-06 03:09:14,-1,nan,nan,nan,nan,1,3,nan,nan,1697,0.9310438,2.0688725,50.288971,105.38661,nan,310.728,0.58275,18.941,nan,nan
1980-08-06 03:14:38,1,1.43333,-7.26667,7.33333,0.516398,1,1,34052.1,32903.2,1697,0.93105841,2.0685453,50.237549,105.38599,6.03668,307.272,-14.8523,11.4877,23.7099,23.3065
1980-08-06 03:20:02,1,3.16667,-2.6,9.23333,0.405518,1,1,35729.0,38975.7,1697,0.93107587,2.0681534,50.186035,105.38525,6.57863,340.021,-25.576,25.401,24.2867,25.3662
1980-08-06 03:25:26,1,3.8,-1.8,9.7,0.476095,1,1,22667.3,25015.3,1697,0.93109047,2.0678272,50.134644,105.38463,7.0406,334.212,-18.0992,22.581,19.3445,20.3217
1980-08-06 03:30:50,1,3.53333,-1.9,9.7,0.457044,1,1,22203.0,27174.6,1697,0.93110502,2.0675001,50.087158,105.38402,6.57832,333.032,-16.6719,24.5874,19.1454,21.1806
1980-08-06 03:36:14,1,-4.16667,-2.36667,9.8,0.194365,1,1,25759.5,24810.1,1697,0.93112248,2.0671082,50.035614,105.38327,6.69222,328.418,-10.9561,25.2943,20.6218,20.2382
1980-08-06 03:41:38,1,-0.833333,-5.8,8.23333,0.405518,1,1,45693.9,45472.1,1697,0.93113708,2.066781,49.984222,105.38264,6.30475,341.746,-26.343,24.2469,27.4655,27.3987
1980-08-06 03:47:02,1,-1.03333,-4.8,9.26667,0.575423,1,1,28437.4,37583.7,1697,0.93115455,2.0663891,49.936615,105.38191,6.12709,337.896,-17.935,25.9237,21.6672,24.9091
1980-08-06 04:33:49,-1,nan,nan,nan,nan,1,3,nan,nan,1697,0.93128842,2.0633841,49.501221,105.37622,nan,308.955,17.0934,10.5149,nan,nan
1980-08-06 04:39:13,1,-7.1,3.6,6.5,0.3,1,1,42337.0,55267.8,1697,0.93130589,2.0629921,49.449707,105.37549,4.83957,312.938,16.474,11.9707,26.4373,30.206
1980-08-06 04:44:37,1,-7.36667,3.33333,6.7,0.253859,1,1,48869.0,50697.4,1697,0.93132043,2.0626659,49.398315,105.37486,5.03408,311.09,16.2664,13.6346,28.4037,28.9301
1980-08-06 04:50:01,1,-7.1,2.76667,6.96667,0.24037,1,1,40566.2,54947.0,1697,0.93133783,2.062274,49.350708,105.37413,4.34458,312.465,10.3766,17.5255,25.8786,30.1183
1980-08-06 04:55:26,1,-7.43333,2.26667,6.96667,0.316228,1,1,43619.9,72058.7,1697,0.93135244,2.0619469,49.299286,105.3735,4.97768,312.949,3.50622,18.7516,26.8349,34.4906
1980-08-06 05:00:50,1,-8.35,1.8,8.0,0.206155,1,1,26829.3,40667.1,1697,0.93136698,2.0616207,49.247894,105.37289,3.50091,308.157,4.61143,27.6986,21.0456,25.9107
1980-08-06 05:06:14,1,-8.73333,0.566667,7.13333,0.305505,1,1,21586.7,42604.2,1697,0.93138438,2.0612288,49.196381,105.37215,3.98318,301.995,-5.61387,25.0157,18.8778,26.5207
1980-08-06 05:11:38,1,-8.4,-0.6,7.9,0.270801,1,1,31039.5,45473.7,1697,0.93139887,2.0609016,49.148865,105.37152,3.97611,306.632,-23.1764,29.6835,22.6368,27.3992
1980-08-06 05:17:01,1,-8.9,-2.43333,7.63333,0.42947,1,1,46971.4,46415.5,1697,0.93141633,2.0605097,49.097351,105.37077,3.73157,316.671,-20.9512,24.436,27.8467,27.6815
1980-08-06 05:23:37,-1,nan,nan,nan,nan,1,4,nan,nan,1697,0.93143374,2.0601177,49.034088,105.37003,nan,nan,nan,nan,nan,nan
1980-08-06 05:29:01,-1,nan,nan,nan,nan,1,3,nan,nan,1697,0.93145114,2.0597267,48.986481,105.36929,nan,319.878,-40.2722,24.3828,nan,nan
1980-08-06 05:34:25,1,-7.03333,-3.83333,6.93333,0.365148,1,1,57939.2,60444.3,1697,0.93146569,2.0593996,48.935089,105.36867,5.35874,319.463,-32.771,24.6417,30.9275,31.589
1980-08-06 05:38:38,1,-7.06667,-1.63333,7.46667,0.282843,1,1,103069.0,78106.9,1697,0.93147731,2.0591383,48.895508,105.36816,5.75718,321.724,-28.1782,26.2757,41.2498,35.9089
1980-08-06 05:44:02,1,-8.23333,-4.06667,3.96667,0.216025,1,1,114524.0,80157.9,1697,0.93149471,2.0587463,48.843994,105.36743,6.60123,319.609,-43.7778,-0.199764,43.4817,36.3774
1980-08-06 05:49:26,1,-8.3,-2.43333,7.9,0.298142,1,1,53127.6,34090.9,1697,0.93150926,2.0584202,48.796509,105.36681,3.41419,321.085,-27.1726,26.9563,29.6154,23.7234
1980-08-06 05:54:50,1,-9.63333,-2.93333,6.63333,0.216025,1,1,53323.4,32931.5,1697,0.93152374,2.0580931,48.745087,105.36618,3.73093,315.96,-33.2768,19.4105,29.67,23.3165
1980-08-06 06:11:02,-1,nan,nan,nan,nan,1,3,nan,nan,1697,0.93157303,2.056983,48.594543,105.36407,nan,320.163,-33.8628,30.5256,nan,nan
1980-08-06 06:16:26,-1,nan,nan,nan,nan,1,3,nan,nan,1697,0.93158758,2.0566568,48.543152,105.36345,nan,319.272,-34.2279,23.5748,nan,nan
1980-08-06 06:21:50,-1,nan,nan,nan,nan,1,3,nan,nan,1697,0.93160206,2.0563307,48.495636,105.36282,nan,314.756,-25.902,22.5814,nan,nan
1980-08-06 06:27:14,1,-10.1,-2.7,5.13333,0.188562,1,1,124279.0,48692.3,1697,0.93161947,2.0559387,48.444122,105.36209,5.21617,315.688,-32.101,0.871274,45.2956,28.3523
1980-08-06 06:32:38,1,-10.3667,-1.13333,5.06667,0.305505,1,1,128160.0,55377.3,1697,0.93163395,2.0556126,48.392731,105.36147,5.57359,313.82,-20.1918,6.32587,45.9975,30.236
1980-08-06 06:38:02,1,-10.4667,-0.9,5.43333,0.253859,1,1,84789.6,53260.8,1697,0.93165135,2.0552206,48.341187,105.36072,4.62631,310.437,-17.1586,8.76479,37.4136,29.6525
1980-08-06 06:43:26,1,-10.9,-0.9,4.9,0.0,1,1,167232.0,64768.3,1697,0.93166584,2.0548935,48.293701,105.36009,5.80274,314.316,-14.7565,7.66401,52.5434,32.6994
1980-08-06 06:48:50,1,-10.7333,-0.433333,5.83333,0.282843,1,1,89789.6,48622.5,1697,0.93168032,2.0545673,48.242279,105.35947,5.52717,309.873,-13.8634,14.7627,38.5009,28.332
1980-08-06 06:54:14,1,-10.7333,-1.86667,4.13333,0.447214,1,1,95881.9,48738.2,1697,0.93169773,2.0541754,48.190765,105.35872,5.77429,310.811,-17.9783,6.40328,39.7856,28.3656
1980-08-06 06:59:38,1,-10.9333,-1.13333,5.03333,0.447214,1,1,75325.5,56188.2,1697,0.93171221,2.0538492,48.14328,105.35811,5.91721,311.965,-9.61398,12.0974,35.2638,30.4565
1980-08-06 07:05:02,1,-10.8,-1.2,5.96667,0.188562,1,1,111272.0,56076.6,1697,0.93172956,2.0534573,48.091736,105.35736,5.50876,316.246,-13.7619,15.6734,42.8599,30.4263
1980-08-06 07:10:26,1,-11.1667,-1.26667,5.3,0.210819,1,1,72497.6,61898.9,1697,0.93174404,2.0531311,48.040344,105.35674,4.99153,311.627,-16.5678,15.5917,34.5955,31.9668
1980-08-06 07:15:50,1,-11.2333,-1.73333,5.3,0.253859,1,1,83051.4,64526.1,1697,0.93175852,2.0528049,47.992828,105.35611,5.4587,311.332,-10.5272,15.9781,37.0281,32.6381
1980-08-06 07:21:14,1,-11.1667,0.166667,3.7,0.24037,1,1,57021.3,71282.0,1697,0.93177587,2.052413,47.941315,105.35536,5.38962,302.306,-14.3882,15.5255,30.6815,34.3042
1980-08-06 07:26:38,1,-11.4,-0.233333,3.7,0.169967,1,1,61088.7,69768.4,1697,0.93179035,2.0520868,47.889923,105.35475,5.6823,300.359,-17.461,15.3014,31.7569,33.9381
1980-08-06 07:32:02,1,-11.5,-1.2,2.3,0.2,1,1,55387.2,69411.1,1697,0.9318077,2.0516949,47.838379,105.354,5.46806,300.446,-24.4585,8.7287,30.2387,33.8511
1980-08-06 07:37:26,1,-11.7333,-2.36667,3.03333,0.559762,1,1,82495.7,86291.4,1697,0.93182218,2.0513687,47.790894,105.35338,5.75236,312.161,-24.0204,14.0034,36.904,37.7435
1980-08-06 07:42:50,1,-11.2,-0.933333,5.7,0.169967,1,1,87468.3,72806.7,1697,0.93183666,2.0510426,47.739471,105.35275,5.87168,318.236,-15.424,20.4339,38.0,34.6692
1980-08-06 07:48:14,1,-11.4,-1.9,5.9,0.2,1,1,86835.6,65479.4,1697,0.93185401,2.0506506,47.687958,105.35201,5.4773,322.119,-17.0771,23.2029,37.8623,32.8784
1980-08-06 07:53:38,1,-11.3667,-1.0,5.83333,0.380058,1,1,83551.3,66747.7,1697,0.93186849,2.0503244,47.640472,105.35139,5.56277,320.716,-21.0873,25.3245,37.1394,33.1953
1980-08-06 07:59:02,1,-11.35,-1.9,5.5,0.206155,1,1,101552.0,68683.6,1697,0.93188584,2.0499325,47.588928,105.35065,5.49571,319.32,-19.7974,17.6931,40.9452,33.6732
1980-08-06 08:04:26,1,-11.4333,-0.966667,4.9,0.24037,1,1,73297.9,70376.2,1697,0.93190026,2.0496063,47.537537,105.35002,5.61282,310.15,-15.2373,16.1148,34.7859,34.0856
1980-08-06 08:09:50,1,-12.0,0.8,3.6,0.0,1,1,57088.8,63901.6,1697,0.93191475,2.0492802,47.486115,105.3494,5.43475,306.222,-6.51144,16.845,30.6996,32.4798
1980-08-06 08:15:14,1,-11.5,-1.55,4.7,0.206155,1,1,53903.9,63748.6,1697,0.93193209,2.0488882,47.438507,105.34865,6.43597,302.1,-15.9784,23.7928,29.831,32.4409
1980-08-06 08:20:38,-1,nan,nan,nan,nan,1,4,nan,nan,1697,0.93194652,2.048562,47.387085,105.34802,nan,nan,nan,nan,nan,nan
1980-08-06 08:26:02,1,-11.7,-0.3,5.6,1.98603e-15,1,1,75705.7,75147.9,1697,0.93196386,2.0481701,47.335571,105.34727,7.207,305.149,-12.0693,31.6497,35.3527,35.2222
1980-08-06 08:31:26,1,-11.8667,0.233333,5.46667,0.282843,1,1,69803.5,83426.1,1697,0.93197834,2.0478439,47.288055,105.34665,7.74306,304.396,-11.6552,30.5608,33.9466,37.1115
1980-08-06 08:36:50,1,-12.8,-0.866667,4.0,0.169967,1,1,34811.0,69460.5,1697,0.93199277,2.0475178,47.236664,105.34604,4.49823,310.288,-16.43,23.0524,23.9727,33.8631
1980-08-06 08:42:14,1,-13.0,0.733333,2.7,0.169967,1,1,35140.3,63749.0,1697,0.93201011,2.0471258,47.18515,105.34529,4.42948,305.637,-4.57772,12.9691,24.0858,32.441
1980-08-06 08:47:38,1,-13.1667,1.33333,4.3,0.210819,1,1,44440.9,64829.4,1697,0.93202454,2.0467997,47.137634,105.34467,4.89416,307.849,-3.38396,22.0445,27.0863,32.7148
1980-08-06 08:53:02,1,-13.3667,0.166667,2.96667,0.282843,1,1,31302.8,58915.2,1697,0.93204188,2.0464087,47.086121,105.34392,4.03735,304.366,-12.614,10.1636,22.7326,31.1868
1980-08-06 08:58:26,1,-13.0333,1.06667,3.36667,0.282843,1,1,34760.6,66275.5,1697,0.93205637,2.0460815,47.034698,105.34329,4.71462,308.108,-5.06958,14.8132,23.9553,33.0776
1980-08-06 09:03:50,1,-12.6333,1.83333,3.36667,0.282843,1,1,33829.8,70888.2,1697,0.93207079,2.0457554,46.983307,105.34267,5.03552,303.391,-5.15718,20.238,23.6324,34.2093
1980-08-06 09:09:14,1,-12.8667,0.7,3.93333,0.156347,1,1,47694.7,64396.1,1697,0.93208808,2.0453644,46.935669,105.34192,4.50546,305.18,-5.6109,16.8377,28.0603,32.6053
1980-08-06 09:14:38,1,-12.5,1.46667,3.96667,0.156347,1,1,40487.6,60086.6,1697,0.9321025,2.0450373,46.884277,105.34129,4.36113,303.24,-7.35019,23.8217,25.8535,31.4954
1980-08-06 09:20:02,1,-12.4,0.3,3.33333,0.329983,1,1,52515.3,73997.7,1697,0.93211979,2.0446463,46.832733,105.34055,4.91233,303.706,-9.24249,17.3344,29.4443,34.9516
1980-08-06 09:25:26,1,-12.0,0.8,3.6,0.0,1,1,47241.9,59830.7,1697,0.93213421,2.0443201,46.785248,105.33992,4.47141,302.693,-6.28821,18.5731,27.9268,31.4282
1980-08-06 09:30:50,1,-12.1,0.8,4.0,0.0,1,1,43045.4,68856.1,1697,0.93214864,2.0439939,46.733826,105.33929,4.69831,303.505,-4.13136,21.1585,26.6576,33.7155
1980-08-06 09:36:14,1,-11.7,1.0,3.6,0.0,1,1,40060.6,64830.1,1697,0.93216592,2.043602,46.682312,105.33855,4.26309,302.802,-6.79722,19.7263,25.7168,32.715
1980-08-06 09:41:38,1,-11.7,1.1,3.2,0.223607,1,1,40666.0,66716.3,1697,0.93218035,2.0432758,46.634796,105.33792,4.72571,303.328,-4.83506,14.6263,25.9104,33.1875
1980-08-06 09:47:02,1,-11.6,1.8,3.46667,0.188562,1,1,48069.4,59871.1,1697,0.93219769,2.0428839,46.583282,105.33717,4.20019,302.122,-1.05622,18.8215,28.1703,31.4388
1980-08-06 09:53:37,-1,nan,nan,nan,nan,1,4,nan,nan,1697,0.93221498,2.0424929,46.52002,105.33643,nan,nan,nan,nan,nan,nan
1980-08-06 09:57:49,1,-11.3,-1.0,4.63333,0.188562,1,1,27367.5,49920.2,1697,0.93222648,2.0422316,46.484375,105.33592,4.92607,296.36,-11.7319,26.8088,21.2557,28.7076
1980-08-06 10:03:13,1,-10.85,-1.05,4.9,0.158114,1,1,31304.6,50042.5,1697,0.93224376,2.0418396,46.432831,105.33517,5.38798,295.533,-10.9413,25.1216,22.7333,28.7427
1980-08-06 10:08:37,1,-11.0,-2.33333,5.16667,0.323179,1,1,32350.3,60208.8,1697,0.93225819,2.0415134,46.381439,105.33455,4.9165,297.338,-19.8954,30.6343,23.1099,31.5274
1980-08-06 10:14:01,1,-10.6333,-2.7,4.3,0.339935,1,1,31373.8,61570.9,1697,0.93227547,2.0411224,46.329895,105.3338,4.99207,299.728,-26.401,22.2909,22.7584,31.882
1980-08-06 10:19:26,1,-10.3,-2.3,2.73333,0.329983,1,1,37492.6,48788.3,1697,0.9322899,2.0407963,46.28241,105.33318,5.04499,296.477,-27.4156,12.6768,24.8789,28.3802
1980-08-06 10:24:50,1,-9.9,-1.13333,4.86667,0.533333,1,1,26454.7,55170.0,1697,0.93230426,2.0404701,46.230988,105.33255,5.36382,300.046,-26.7762,27.0474,20.8982,30.1793
1980-08-06 10:30:14,1,-9.55,1.95,4.95,0.589491,1,1,47248.0,55884.2,1697,0.93232155,2.0400791,46.179474,105.3318,5.0858,298.945,3.70416,29.8943,27.9286,30.374
1980-08-06 10:35:38,1,-7.43333,-3.1,7.46667,0.380058,1,1,42962.6,60054.6,1697,0.93233597,2.039753,46.131958,105.33118,4.98276,316.485,-38.2547,52.429,26.632,31.487
1980-08-06 10:41:02,1,-8.9,-4.9,2.3,0.0,1,1,53339.8,58986.2,1697,0.9323532,2.039361,46.080414,105.33041,5.57902,303.15,-47.6213,9.18425,29.6745,31.2056
1980-08-06 10:46:26,1,-9.35,-5.2,0.3,0.180278,1,1,47278.8,60105.9,1697,0.93236762,2.0390348,46.029022,105.32979,5.86709,303.423,-48.0476,-0.581271,27.9377,31.5004
1980-08-06 10:51:50,1,-9.36667,-5.26667,2.56667,0.355903,1,1,71974.1,62119.2,1697,0.93238205,2.0387087,45.9776,105.32916,6.63795,304.669,-50.5046,13.4295,34.4704,32.0237
1980-08-06 10:57:14,1,-9.3,-5.56667,1.5,0.149071,1,1,64360.6,59249.0,1697,0.93239933,2.0383177,45.929993,105.32841,5.92907,301.363,-47.83,-0.00950737,32.5963,31.2751
1980-08-06 11:02:38,1,-8.83333,-5.36667,1.66667,0.454606,1,1,54059.4,50054.4,1697,0.9324137,2.0379915,45.878571,105.32779,4.7416,301.457,-54.4075,4.23445,29.874,28.7461
1980-08-06 11:08:02,1,-9.73333,-5.03333,1.9,0.210819,1,1,49683.6,54725.8,1697,0.93243092,2.0375996,45.827057,105.32704,5.66485,301.571,-47.047,6.01073,28.6394,30.0576
1980-08-06 11:13:26,1,-9.93333,-4.93333,2.66667,0.496655,1,1,36884.4,43586.5,1697,0.93244529,2.0372734,45.779541,105.32642,4.89293,301.7,-46.001,5.24399,24.6762,26.8247
1980-08-06 11:18:50,1,-9.46667,-4.96667,4.03333,0.282843,1,1,48287.4,54229.9,1697,0.93245965,2.0369473,45.728149,105.32579,5.53976,300.086,-42.7614,15.2564,28.2342,29.9211
1980-08-06 11:24:14,1,-9.63333,-5.7,2.3,0.385861,1,1,43996.7,50663.7,1697,0.93247694,2.0365562,45.676605,105.32503,5.51049,301.039,-51.0177,10.7842,26.9506,28.9205
1980-08-06 11:29:38,1,-10.15,-1.9,4.0,0.269258,1,1,28429.6,43706.7,1697,0.9324913,2.0362301,45.629089,105.3244,4.35099,288.177,-33.5165,6.90947,21.6642,26.8616
1980-08-06 11:35:02,1,-9.45,-4.45,3.7,0.324037,1,1,37049.0,49197.0,1697,0.93250853,2.0358391,45.577576,105.32365,4.27057,296.534,-47.0139,8.00633,24.7313,28.4988
1980-08-06 11:40:26,1,-8.2,-4.6,2.8,0.0,1,1,40648.5,86942.3,1697,0.93252289,2.0355129,45.526154,105.32303,5.36231,302.056,-53.4574,8.5937,25.9048,37.8855
1980-08-06 11:45:50,1,-7.93333,-5.6,2.66667,0.452155,1,1,52178.3,64547.8,1697,0.93253726,2.0351868,45.474762,105.3224,5.31775,310.985,-68.2791,0.120416,29.3496,32.6436
1980-08-06 11:51:14,1,-7.8,-5.53333,3.33333,0.405518,1,1,66312.1,80514.2,1697,0.93255454,2.0347948,45.427124,105.32166,6.15823,309.463,-64.3354,17.5783,33.0868,36.4581
1980-08-06 11:56:38,1,-7.56667,-4.93333,1.46667,0.424264,1,1,47014.2,68667.4,1697,0.93256891,2.0344687,45.375702,105.32101,5.14758,303.003,-54.557,3.37661,27.8595,33.6692
1980-08-06 12:02:02,1,-6.26667,-6.43333,0.766667,0.282843,1,1,100937.0,103959.0,1697,0.93258613,2.0340776,45.324188,105.32027,6.42391,320.56,-62.4655,-11.3879,40.8209,41.4276
1980-08-06 12:07:26,1,-8.0,-4.35,0.55,0.644205,1,1,62767.6,79436.9,1697,0.9326005,2.0337515,45.276672,105.31964,4.66367,305.612,-52.4529,-10.0171,32.1903,36.2134
1980-08-06 12:12:50,1,-5.06667,-6.13333,-1.93333,0.424264,1,1,89323.3,122590.0,1697,0.9326148,2.0334253,45.225281,105.31902,7.07791,322.785,-64.96,-33.6904,38.4008,44.9869
1980-08-06 12:18:14,1,-7.0,-6.36667,0.466667,0.371184,1,1,52064.2,66362.6,1697,0.93263203,2.0330343,45.173737,105.31825,5.16933,310.274,-60.2358,-10.8803,29.3175,33.0994
1980-08-06 12:23:38,1,-6.56667,-5.9,-0.7,0.584998,1,1,63963.5,68152.9,1697,0.93264639,2.0327082,45.126221,105.31763,5.44397,314.043,-65.5444,-19.4822,32.4956,33.5429
1980-08-06 12:29:02,1,-7.8,-3.5,-0.3,0.57735,1,1,51731.6,76233.1,1697,0.93266362,2.0323162,45.074707,105.31688,4.56786,302.546,-47.4407,-29.7716,29.2238,35.4756
1980-08-06 12:34:26,1,-8.76667,-3.06667,-0.233333,0.282843,1,1,38398.7,53039.3,1697,0.93267798,2.0319901,45.023285,105.31625,4.17895,300.229,-47.9433,-23.7414,25.1777,29.5908
1980-08-06 12:39:50,1,-9.7,0.8,1.5,0.2,1,1,35134.6,62258.4,1697,0.93269229,2.0316648,44.971863,105.31561,4.52145,290.095,-2.51537,-5.46462,24.0838,32.0595
1980-08-06 12:45:14,1,-9.1,0.6,4.0,0.374166,1,1,36333.4,61348.5,1697,0.93270952,2.0312729,44.924255,105.31487,4.85729,292.822,-8.61234,15.5924,24.4913,31.8244
1980-08-06 12:56:02,1,-5.86667,-6.4,-1.63333,0.194365,1,1,106014.0,78030.3,1697,0.93274111,2.0305557,44.821289,105.31348,6.08801,323.371,-52.3618,-29.1847,41.835,35.8913
1980-08-06 13:01:26,1,-6.43333,-6.16667,-0.966667,0.503322,1,1,98033.5,62431.1,1697,0.93275547,2.0302296,44.773804,105.31285,5.71947,314.735,-57.0282,-25.8323,40.2296,32.1039
1980-08-06 13:11:01,-1,nan,nan,nan,nan,1,4,nan,nan,1697,0.93278408,2.0295773,44.682709,105.3116,nan,nan,nan,nan,nan,nan
1980-08-06 13:21:49,-1,nan,nan,nan,nan,1,3,nan,nan,1697,0.93281275,2.0289249,44.583801,105.31035,nan,315.451,-54.8433,-12.3107,nan,nan
1980-08-06 13:32:37,1,-2.65,-3.3,-4.55,0.880341,1,1,67437.7,67717.1,1697,0.93284428,2.0282078,44.480835,105.30896,5.09131,308.889,-55.4697,-18.087,33.3664,33.4355
1980-08-06 13:43:25,1,-7.5,-4.8,0.2,0.2,1,1,419808.0,90434.6,1697,0.93287575,2.0274906,44.381805,105.30759,7.26783,323.868,-50.2642,-25.4312,83.2498,38.6389
1980-08-06 13:50:02,1,-6.7,-6.7,-0.3,0.0,1,1,83949.9,90880.1,1697,0.93289584,2.0270338,44.31842,105.3067,5.78714,316.497,-56.0719,-30.5146,37.2279,38.734
1980-08-06 14:00:50,1,-6.3,-6.5,0.1,0.0,1,1,131798.0,93708.6,1697,0.93292451,2.0263824,44.219513,105.30545,8.0983,332.4,-45.2501,-22.6687,46.6457,39.3321
1980-08-06 14:11:38,1,-5.5,-6.5,0.6,0.0,1,1,209453.0,104075.0,1697,0.93295592,2.0256653,44.116577,105.30406,8.02956,335.342,-52.5241,-21.8432,58.8033,41.4507
1980-08-06 14:22:26,1,-8.8,1.1,6.6,0.0,1,1,185039.0,97128.6,1697,0.93298739,2.0249481,44.017517,105.30267,8.4614,315.51,-2.91727,20.1446,55.27,40.0434
1980-08-06 14:33:13,1,-8.7,-2.9,5.3,0.806226,1,1,189125.0,120278.0,1697,0.93301886,2.024231,43.918488,105.30128,8.96666,320.732,-12.231,21.6758,55.877,44.5606
1980-08-06 14:43:20,-1,nan,nan,nan,nan,1,4,nan,nan,1698,0.93307078,1.8502648,43.749725,105.22629,nan,nan,nan,nan,nan,nan
1980-08-06 15:26:31,-1,nan,nan,nan,nan,1,3,nan,nan,1697,0.93317032,2.0207767,43.419617,105.29462,nan,314.476,-4.15868,18.5014,nan,nan
1980-08-06 16:09:43,-1,nan,nan,nan,nan,1,3,nan,nan,1697,0.93329304,2.0179749,43.019653,105.28918,nan,315.177,-24.1769,16.3815,nan,nan
1980-08-06 16:52:55,-1,nan,nan,nan,nan,1,3,nan,nan,1697,0.93341559,2.015172,42.615784,105.28375,nan,314.615,-39.2581,-14.2088,nan,nan
1980-08-06 17:16:55,-1,nan,nan,nan,nan,1,3,nan,nan,1697,0.9334839,2.013608,42.394012,105.28072,nan,347.857,-26.197,16.0016,nan,nan
1980-08-06 18:00:07,-1,nan,nan,nan,nan,1,3,nan,nan,1697,0.93360913,2.0107422,41.98999,105.27515,nan,340.634,-45.8542,-8.68371,nan,nan
1980-08-06 18:43:19,-1,nan,nan,nan,nan,1,3,nan,nan,1697,0.9337312,2.0079412,41.586121,105.2697,nan,335.543,-46.6268,-7.2971,nan,nan
1980-08-06 19:26:31,-1,nan,nan,nan,nan,1,3,nan,nan,1697,0.93385327,2.0051403,41.186127,105.26424,nan,328.152,-27.5283,-41.5633,nan,nan
1980-08-06 20:09:43,-1,nan,nan,nan,nan,1,3,nan,nan,1697,0.93397516,2.0023403,40.782227,105.25879,nan,351.683,-43.6197,-9.94208,nan,nan
1980-08-06 20:52:55,-1,nan,nan,nan,nan,1,3,nan,nan,1697,0.93409687,1.9995413,40.382233,105.25331,nan,361.641,-34.7171,-27.4527,nan,nan
1980-08-06 21:36:07,-1,nan,nan,nan,nan,1,3,nan,nan,1697,0.93422127,1.9966764,39.97818,105.24771,nan,359.191,-10.3308,-28.3968,nan,nan
1980-08-06 22:19:19,-1,nan,nan,nan,nan,1,3,nan,nan,1697,0.93434268,1.9938774,39.57428,105.24223,nan,348.407,48.2324,-27.4547,nan,nan
1980-08-06 23:02:31,-1,nan,nan,nan,nan,1,3,nan,nan,1697,0.93446398,1.9910784,39.174255,105.23674,nan,348.661,-42.5244,-31.7365,nan,nan
1980-08-06 23:45:43,-1,nan,nan,nan,nan,1,3,nan,nan,1697,0.93458509,1.9882813,38.770325,105.23125,nan,360.826,-10.2864,-54.1835,nan,nan
